sat.trackr.live / text

‹ back to catalog

ONEWEB-0533

NORAD 55141 · 2023-004B

PAYLOAD ACTIVE UNKNOWN

§ Identity

Operator
Country
UK
Launch date
2023-01-10
Launch site
AFETR
Launch vehicle
Mass (kg)
RCS (m²)

Purposes: comms

External: N2YO · Heavens-Above · Gunter

§ Orbital elements

Epoch: 2026-05-25T03:05:31.282656Z

Period
109.72 min
Inclination
87.8962°
Eccentricity
0.0001957
Mean motion
13.12440624 rev/d
Perigee alt
1,212.2 km
Apogee alt
1,215.2 km
Semi-major
7,591.9 km
B*
1.5684e-4
RAAN
355.2562°
Arg perigee
83.2701°
Mean anomaly
276.8650°
Rev number
16,503

§ Raw data

ONEWEB-05331 55141U 23004B   26145.12883429  .00000069  00000+0  15684-3 0  99912 55141  87.8962 355.2562 0001957  83.2701 276.8650 13.12440624165035

JSON: /api/v1/satellites/55141 · /tle

For live sub-satellite position, see the globe view (requires WebGL).

§ Visibility from observer

Set your observer location to see the next 7 days of passes ≥ 10°. The values pass through the URL so the page stays shareable.

No JS? Fill the form by hand. The geolocation button needs JavaScript.